This demonstration page uses our WeatherBlox Daily Observations layout. Learn more.

40.92945, -100.16068

Hourly Observations for March 7, 2018

Temp ( °F °C ) Dew Point ( °F °C ) Humidity (%) Winds ( mph kmh ) Pressure ( in mb ) Visibility ( mi km ) Precip ( " mm )
12:15 am 00:15 Clear 25 -4 19 -7.3 78 78 N 6 9 30.39 1029 10 16.0934 0 0
12:35 am 00:35 Clear 24 -4.4 18 -7.6 79 79 N 6 9 30.39 1029 10 16.0934 0 0
12:55 am 00:55 Clear 22 -5.4 17 -8.3 80 80 WNW 8 13 30.39 1029 10 16.0934 0 0
1:15 am 01:15 Clear 21 -6.1 17 -8.6 83 83 W 8 13 30.45 1031 10 16.0934 0 0
1:35 am 01:35 Clear 21 -6.2 17 -8.4 85 85 WNW 8 13 30.45 1031 10 16.0934 0 0
1:55 am 01:55 Clear 22 -5.4 18 -8 82 82 WNW 8 13 30.42 1030 10 16.0934 0 0
2:15 am 02:15 Clear 22 -5.3 17 -8.1 81 81 WNW 8 13 30.42 1030 10 16.0934 0 0
2:35 am 02:35 Clear 23 -5.2 17 -8.5 78 78 WNW 9 15 30.42 1030 10 16.0934 0 0
2:55 am 02:55 Clear 23 -5.2 17 -8.5 78 78 WNW 10 17 30.42 1030 10 16.0934 0 0
3:15 am 03:15 Clear 23 -5.2 17 -8.6 77 77 WNW 13 20 30.42 1030 10 16.0934 0 0
3:35 am 03:35 Clear 22 -5.5 16 -8.8 78 78 WNW 9 15 30.39 1029 10 16.0934 0 0
3:55 am 03:55 Clear 22 -5.5 16 -9 77 77 WNW 10 17 30.39 1029 10 16.0934 0 0
4:15 am 04:15 Clear 22 -5.6 16 -9 77 77 WNW 9 15 30.39 1029 10 16.0934 0 0
4:35 am 04:35 Clear 22 -5.6 15 -9.2 76 76 WNW 8 13 30.39 1029 10 16.0934 0 0
4:55 am 04:55 Clear 21 -6 15 -9.5 77 77 WNW 8 13 30.39 1029 10 16.0934 0 0
5:15 am 05:15 Clear 22 -5.6 15 -9.3 75 75 WNW 10 17 30.39 1029 10 16.0934 0 0
5:35 am 05:35 Clear 22 -5.5 15 -9.6 73 73 NW 10 17 30.39 1029 10 16.0934 0 0
5:55 am 05:55 Clear 22 -5.8 15 -9.7 74 74 NW 10 17 30.39 1029 10 16.0934 0 0
6:15 am 06:15 Clear 21 -6 14 -9.8 75 75 NW 10 17 30.39 1029 10 16.0934 0 0
6:35 am 06:35 Clear 21 -6.3 14 -9.9 76 76 WNW 10 17 30.42 1030 10 16.0934 0 0
6:55 am 06:55 Clear 21 -6.2 14 -9.8 76 76 WNW 10 17 30.42 1030 10 16.0934 0 0
7:15 am 07:15 Sunny 21 -6.1 15 -9.7 76 76 WNW 10 17 30.42 1030 10 16.0934 0 0
7:35 am 07:35 Sunny 22 -5.5 15 -9.2 75 75 WNW 9 15 30.39 1029 10 16.0934 0 0
7:55 am 07:55 Sunny 24 -4.7 16 -9 72 72 WNW 12 19 30.39 1029 10 16.0934 0 0
8:15 am 08:15 Sunny 25 -4.1 16 -8.7 71 71 WNW 10 17 30.39 1029 10 16.0934 0 0
8:35 am 08:35 Sunny 26 -3.4 16 -8.9 66 66 NW 10 17 30.39 1029 10 16.0934 0 0
8:55 am 08:55 Sunny 28 -2.5 16 -9 61 61 NW 12 19 30.36 1028 10 16.0934 0 0
9:15 am 09:15 Sunny 30 -1.2 17 -8.6 58 58 NW 12 19 30.36 1028 10 16.0934 0 0
9:35 am 09:35 Sunny 32 -0.1 15 -9.3 50 50 NNW 10 17 30.33 1027 10 16.0934 0 0
9:55 am 09:55 Sunny 33 0.6 15 -9.2 48 48 NW 13 20 30.36 1028 10 16.0934 0 0
10:15 am 10:15 Sunny 34 1.3 15 -9.3 46 46 NW 14 22 30.33 1027 10 16.0934 0 0
10:35 am 10:35 Sunny 37 2.5 15 -9.7 41 41 WNW 14 22 30.33 1027 10 16.0934 0 0
10:55 am 10:55 Sunny 37 3 15 -9.5 40 40 WNW 16 26 30.3 1026 10 16.0934 0 0
11:15 am 11:15 Sunny 39 3.7 15 -9.3 38 38 WNW 12 19 30.3 1026 10 16.0934 0 0
11:35 am 11:35 Sunny 40 4.5 14 -9.8 35 35 NW 15 24 30.3 1026 10 16.0934 0 0
11:55 am 11:55 Sunny 41 5 14 -9.9 33 33 WNW 12 19 30.27 1025 10 16.0934 0 0
12:15 pm 12:15 Sunny 42 5.5 14 -10 32 32 WNW 13 20 30.24 1024 10 16.0934 0 0
12:35 pm 12:35 Sunny 43 6.2 15 -9.5 32 32 WNW 13 20 30.24 1024 10 16.0934 0 0
12:55 pm 12:55 Sunny 44 6.7 15 -9.6 30 30 NNW 16 26 30.24 1024 10 16.0934 0 0
1:15 pm 13:15 Sunny 45 7.1 15 -9.7 29 29 NNW 17 28 30.21 1023 10 16.0934 0 0
1:35 pm 13:35 Sunny 45 7.3 15 -9.4 30 30 NNW 13 20 30.21 1023 10 16.0934 0 0
1:55 pm 13:55 Partly Cloudy 46 7.7 15 -9.3 29 29 N 17 28 30.21 1023 10 16.0934 0 0
2:15 pm 14:15 Partly Cloudy 46 7.9 16 -9.1 29 29 NNW 16 26 30.21 1023 10 16.0934 0 0
2:35 pm 14:35 Cloudy 45 7.1 15 -9.2 31 31 N 16 26 30.21 1023 10 16.0934 0 0
2:55 pm 14:55 Cloudy 47 8.4 17 -8.6 29 29 N 18 30 30.18 1022 10 16.0934 0 0
3:15 pm 15:15 Mostly Cloudy 47 8.2 17 -8.6 30 30 N 14 22 30.21 1023 10 16.0934 0 0
3:35 pm 15:35 Mostly Cloudy 46 7.9 16 -8.9 30 30 NNE 9 15 30.18 1022 10 16.0934 0 0
3:55 pm 15:55 Mostly Cloudy 46 7.7 17 -8.6 31 31 N 14 22 30.18 1022 10 16.0934 0 0
4:15 pm 16:15 Partly Cloudy 46 7.8 17 -8.3 31 31 N 15 24 30.18 1022 10 16.0934 0 0
4:35 pm 16:35 Sunny 46 7.7 17 -8.1 32 32 NNW 20 31 30.21 1023 10 16.0934 0 0
4:55 pm 16:55 Sunny 46 7.5 17 -8.1 32 32 N 18 30 30.21 1023 10 16.0934 0 0
5:15 pm 17:15 Sunny 44 6.8 18 -7.9 35 35 N 15 24 30.21 1023 10 16.0934 0 0
5:35 pm 17:35 Sunny 43 5.9 18 -7.9 37 37 NNE 15 24 30.21 1023 10 16.0934 0 0
5:55 pm 17:55 Sunny 42 5.4 18 -7.7 39 39 NNE 12 19 30.21 1023 10 16.0934 0 0
6:15 pm 18:15 Sunny 40 4.3 19 -7.5 42 42 N 12 19 30.24 1024 10 16.0934 0 0
6:35 pm 18:35 Sunny 37 3 19 -7.2 47 47 N 8 13 30.24 1024 10 16.0934 0 0
6:55 pm 18:55 Clear 34 1.1 19 -7.5 53 53 NNE 7 11 30.3 1026 10 16.0934 0 0
7:15 pm 19:15 Clear 34 0.9 19 -7.4 54 54 NNE 8 13 30.3 1026 10 16.0934 0 0
7:35 pm 19:35 Clear 32 0 19 -7.5 57 57 NNE 6 9 30.3 1026 10 16.0934 0 0
7:55 pm 19:55 Clear 32 -0.2 18 -7.7 57 57 NNE 6 9 30.3 1026 10 16.0934 0 0
8:15 pm 20:15 Clear 32 -0.2 17 -8.1 56 56 NE 7 11 30.3 1026 10 16.0934 0 0
8:35 pm 20:35 Clear 30 -1 17 -8.5 57 57 NNE 5 7 30.33 1027 10 16.0934 0 0
8:55 pm 20:55 Clear 30 -1.1 17 -8.6 57 57 NNE 3 6 30.33 1027 10 16.0934 0 0
9:15 pm 21:15 Clear 26 -3.2 16 -8.9 65 65 Calm 30.33 1027 10 16.0934 0 0
9:35 pm 21:35 Clear 29 -1.8 16 -8.8 59 59 Calm 30.33 1027 10 16.0934 0 0
9:55 pm 21:55 Clear 29 -1.7 16 -9 58 58 Calm 30.33 1027 10 16.0934 0 0
10:15 pm 22:15 Clear 28 -2.3 16 -8.7 62 62 Calm 30.33 1027 10 16.0934 0 0
10:35 pm 22:35 Clear 24 -4.6 15 -9.4 69 69 Calm 30.36 1028 10 16.0934 0 0
10:55 pm 22:55 Clear 24 -4.7 16 -8.8 73 73 Calm 30.36 1028 10 16.0934 0 0
11:15 pm 23:15 Clear 24 -4.6 15 -9.2 71 71 Calm 30.36 1028 10 16.0934 0 0
11:35 pm 23:35 Clear 24 -4.7 16 -9.1 72 72 Calm 30.36 1028 10 16.0934 0 0
11:55 pm 23:55 Clear 24 -4.5 16 -8.7 73 73 Calm 30.36 1028 10 16.0934 0 0

Powered by AerisWeather